Weather History for KLFT - June, 2013

Change the Weather History Date:

Thursday, June 20, 2013

  Actual Average Record
Temperature  
Mean Temperature 83 °F 82 °F  
Max Temperature 91 °F 91 °F 100 °F (1936)
Min Temperature 74 °F 73 °F 61 °F (1899)
Cooling Degree Days 18 17  
Month to date cooling degree days 350 322  
Year to date cooling degree days 814 936  
Since 1 June cooling degree days 350 322  
Growing Degree Days 32 (Base 50)    
Moisture  
Dew Point 73 °F    
Average Humidity 73    
Maximum Humidity 94    
Minimum Humidity 52    
Precipitation  
Precipitation 0.06 in 0.25 in 2.39 in (1963)
Month to date precipitation 2.70 4.52  
Year to date precipitation 34.82 27.14  
Sea Level Pressure  
Sea Level Pressure 30.07 in    
Wind  
Wind Speed 4 mph (WSW)    
Max Wind Speed 15 mph    
Max Gust Speed 21 mph    
Visibility 9 miles    
Events Rain , Thunderstorm    
T = Trace of Precipitation, MM = Missing Value Source: NWS Daily Summary

Daily Weather History Graph

Daily Weather History Graph

Search for Another Location

Airport or City:

Trip Planner

Search our weather history database for the weather conditions in past years. The results will help you decide how hot, cold, wet, or windy it might be!

Date:

Astronomy

Jun. 20, 2013 Rise Set
Actual Time 6:06 AM CDT 8:12 PM CDT
Civil Twilight 5:39 AM CDT 8:40 PM CDT
Nautical Twilight 5:05 AM CDT 9:13 PM CDT
Astronomical Twilight 4:29 AM CDT 9:49 PM CDT
Moon 5:22 PM CDT (6/20) 3:24 AM CDT (6/20)
Length of Visible Light 15h 00m
Length of Day
14h 05m
Waxing Gibbous, 89% of the Moon is Illuminated
Jun 20
Waxing Gibbous
Jun 23
Full
Jun 29
Last Quarter
Jul 8
New
Jul 15
First Quarter

Hourly Weather History & Observations

Time (CDT) Temp. Heat Index Dew Point Humidity Pressure Visibility Wind Dir Wind Speed Gust Speed Precip Events Conditions
12:53 AM 75.9 °F - 73.9 °F 94% 30.03 in 10.0 mi Calm Calm - N/A   Clear
1:53 AM 75.0 °F - 73.0 °F 94% 30.02 in 10.0 mi Calm Calm - N/A   Clear
2:53 AM 75.0 °F - 72.0 °F 90% 30.02 in 10.0 mi Calm Calm - N/A   Overcast
3:53 AM 75.0 °F - 73.0 °F 94% 30.02 in 9.0 mi Calm Calm - N/A   Clear
4:53 AM 73.9 °F - 72.0 °F 93% 30.02 in 9.0 mi Calm Calm - 0.01 in   Clear
5:53 AM 75.0 °F - 73.0 °F 94% 30.03 in 8.0 mi Calm Calm - N/A   Clear
6:53 AM 75.0 °F - 73.0 °F 94% 30.05 in 8.0 mi Calm Calm - N/A   Partly Cloudy
7:21 AM 77.0 °F - 71.6 °F 83% 30.06 in 10.0 mi SSW 5.8 mph - N/A   Mostly Cloudy
7:49 AM 75.2 °F - 69.8 °F 83% 30.09 in 2.5 mi WNW 10.4 mph - 0.03 in Rain Heavy Rain
7:50 AM 75.9 °F - 71.1 °F 85% 30.09 in 2.5 mi WNW 10.4 mph - 0.03 in Rain Heavy Rain
8:00 AM 75.2 °F - 71.6 °F 89% 30.08 in 4.0 mi North 8.1 mph - 0.02 in Rain Rain
8:53 AM 78.1 °F - 72.0 °F 81% 30.10 in 10.0 mi South 8.1 mph - 0.02 in   Mostly Cloudy
9:11 AM 80.6 °F 84.6 °F 71.6 °F 74% 30.11 in 7.0 mi Calm Calm - 0.00 in Rain , Thunderstorm Light Rain
9:31 AM 80.6 °F 85.4 °F 73.4 °F 79% 30.12 in 10.0 mi North 8.1 mph - 0.00 in Thunderstorm Overcast
9:53 AM 78.1 °F - 72.0 °F 81% 30.12 in 10.0 mi Calm Calm - 0.00 in Rain Light Rain
10:53 AM 84.0 °F 90.2 °F 73.0 °F 69% 30.12 in 10.0 mi SE 3.5 mph - 0.00 in   Partly Cloudy
11:53 AM 87.1 °F 95.4 °F 73.9 °F 65% 30.11 in 10.0 mi SSW 3.5 mph - N/A   Scattered Clouds
12:53 PM 88.0 °F 95.6 °F 73.0 °F 61% 30.09 in 10.0 mi WNW 5.8 mph - N/A   Mostly Cloudy
1:53 PM 87.1 °F 92.8 °F 71.1 °F 59% 30.09 in 10.0 mi SW 13.8 mph - N/A   Scattered Clouds
2:53 PM 89.1 °F 96.0 °F 72.0 °F 57% 30.07 in 10.0 mi SW 13.8 mph 18.4 mph N/A   Clear
3:53 PM 89.1 °F 96.0 °F 72.0 °F 57% 30.06 in 10.0 mi WSW 10.4 mph 18.4 mph N/A   Mostly Cloudy
4:53 PM 88.0 °F 95.6 °F 73.0 °F 61% 30.06 in 10.0 mi SW 8.1 mph - N/A   Scattered Clouds
5:53 PM 90.0 °F 95.4 °F 70.0 °F 52% 30.05 in 10.0 mi NW 5.8 mph - N/A   Mostly Cloudy
6:53 PM 86.0 °F 93.8 °F 73.9 °F 67% 30.04 in 10.0 mi ENE 3.5 mph - N/A   Partly Cloudy
7:53 PM 82.0 °F 88.6 °F 75.0 °F 79% 30.06 in 10.0 mi Calm Calm - N/A   Clear
8:53 PM 80.1 °F 85.1 °F 75.0 °F 85% 30.06 in 10.0 mi Calm Calm - N/A   Clear
9:53 PM 79.0 °F - 75.0 °F 88% 30.07 in 10.0 mi Calm Calm - N/A   Clear
10:53 PM 78.1 °F - 75.0 °F 90% 30.08 in 10.0 mi Calm Calm - N/A   Clear
11:53 PM 77.0 °F - 75.0 °F 94% 30.08 in 10.0 mi Calm Calm - N/A   Clear